Location: Trani
(41.2830°N, 16.4170°E)
Time: 03:45:45
(UTC+02:00)

ISS - Pass Details

Date: 16 May 2021
Orbit: 417 x 422 km, 51.6° (Epoch: 14 June)

Event Time Altitude Azimuth Distance (km) Brightness Sun altitude
Rises 22:51:00 0° 273° (W) 2,360 0.5 -23.4°
Reaches altitude 10° 22:53:26 10° 290° (WNW) 1,499 -0.3 -23.6°
Maximum altitude 22:56:04 21° 341° (NNW) 1,003 -1.1 -23.8°
Drops below altitude 10° 22:58:44 10° 34° (NNE) 1,505 -0.6 -24.1°
Sets 23:01:11 0° 51° (NE) 2,372 0.2 -24.3°
